Location: *
(43.9905°S, 176.4941°W)
Time: 10:36:03
(UTC+00:00)

Nimbus 7 Rocket - Pass Details

Date: 08 December 2019
Orbit: 923 x 964 km, 99.4° (Epoch: 26 January)

Event Time Altitude Azimuth Distance (km) Brightness Sun altitude
Exits shadow 09:30:48 27° 27° (NNE) 1,773 5.3 -17.2°
Maximum altitude 09:34:19 76° 108° (ESE) 1,006 4.5 -17.6°
Drops below altitude 10° 09:40:27 10° 192° (SSW) 2,729 8.0 -18.1°
Sets 09:42:55 0° 193° (SSW) 3,678 9.0 -18.3°
